CZ-2D DEB

Satellite information

Favourite Embed

Satellite Type and Status

DEBRISIN ORBIT

Key statistics

Satellite CZ-2D DEB at a glance.

Uptime

5088

Days in orbit

Revolutions

≈ 14.5

Per day

Orbit

SSO

Sun Synchronous Orbit

Inclination

98.3

Latest

Satellite identification and parameters

Extended collection of information and parameters for CZ-2D DEB.

Object identification

Identified? True

Debris? True

Object name: CZ-2D DEB

International designator: 2011-068D

Object number (NORAD): 38176

Object ID (CCSDS): 38176

Country: PEOPLES REPUBLIC OF CHINA (PRC)

Current information (Y/N): Y

RCS size: SMALL

Orbital parameters

Period: 99.411 minutes

Inclination: 98.2872 deg

SMA: 7108.574 km

Apoapsis: 805.948 km

Periapsis: 654.93 km

RAAN: 300.0206 deg

Eccentricy: 0.01062224

Argument of periapsis: 158.2767 deg

Mean anomaly: 202.2982 deg

Mean motion: 14.48535048 rev/day

Mean motion (dot): 0.0000279 rev/day2

B* drag term: 0.00070320439 1/REarth

Two-line elements (TLE)

Creation date: Oct. 25, 2025, 3:11 a.m.

Reference frame: TEME

Reference center: EARTH

Epoch: Oct. 24, 2025, 10:57 p.m. UTC

TLE line 0: 0 CZ-2D DEB

TLE line 1: 1 38176U 11068D 25297.95644262 .00002790 00000-0 70320-3 0 9997

TLE line 2: 2 38176 98.2872 300.0206 0106222 158.2767 202.2982 14.48535048727668

Live tracking on map

Real-time ground track for satellite CZ-2D DEB.

In-orbit conjunctions

A list of the most updated potential collisions computed for object CZ-2D DEB.

Target Orbit TCA Probability of collision Miss distance Type
FENGYUN 1C DEB SSO 2025-09-21 16:12:25 0.0001019624 121.0 (m) DEBRIS
IRIDIUM 24 LEO 2025-01-03 00:48:05 0.0003401523 130.0 (m) PAYLOAD
IRIDIUM 33 DEB LEO 2024-12-20 11:31:42 0.0001473251 497.0 (m) DEBRIS
DELTA 1 DEB SSO 2024-09-10 16:20:20 0.000140115 43.0 (m) DEBRIS
SL-8 R/B LEO 2024-08-29 23:30:56 0.0001127681 842.0 (m) ROCKET BODY

Associated space launch

CZ-2D DEB was lifted into orbit during the mission ‘Long March 2D | Shiyan Weixing 4 & Chuang Xin 1C’, on board a Long March 2D space rocket.

The launch took place on Nov. 20, 2011, 12:15 a.m. from Launch Area 4 (SLS-2 / 603).

For more information about the launch, click the button.

Launch to space Long March 2D | Shiyan Weixing 4 & Chuang Xin 1C
Long March 2D | Shiyan Weixing 4 & Chuang Xin 1C

Agency: N/A

Status: Launch Successful

Launch date: Nov. 20, 2011, 12:15 a.m. UTC

Rocket: Long March 2D

Launch pad: Launch Area 4 (SLS-2 / 603)

Location: Jiuquan Satellite Launch Center, People's Republic of China

...

Latest news about this satellite

There are no fresh news available about this satellite. Check back as we update our databases every day.


Newsletter sign-up

Weekly statistics, charts and insights to help you stay on top of the space industry.